Location: Piotrkow Trybunalski
(51.4000°N, 19.6830°E)
Time: 05:11:04
(UTC+02:00)

A-11 Canister half - Pass Details

Date: 31 January 2023
Orbit: 1526 x 1682 km, 47.3° (Epoch: 25 March)

Event Time Altitude Azimuth Distance (km) Brightness Sun altitude
Rises 04:55:28 0° 193° (SSW) 4,665 11.4 -22.7°
Reaches altitude 10° 04:59:18 10° 180° (S) 3,684 11.0 -22.1°
Maximum altitude 05:05:59 23° 133° (SE) 2,822 10.9 -21.1°
Drops below altitude 10° 05:12:44 10° 86° (E) 3,730 12.2 -20.0°
Sets 05:16:37 0° 73° (ENE) 4,737 12.8 -19.4°
